View from above orbital plane
|
View from above satellite
|
Ground track
|
The orbit data is extracted from the following two-line orbital elements,
1 20453U 90008B 13168.85062943 .00005766 00000-0 39666-3 0 7059
2 20453 035.6275 094.1262 0343232 009.9352 350.7934 14.68256584232123
| Epoch (UTC): | 17 June 2013 20:24:54 |
| Eccentricity: | 0.0343232 |
| inclination: | 35.6275° |
| perigee height: | 425 km |
| apogee height: | 908 km |
| right ascension of ascending node: | 94.1262° |
| argument of perigee: | 9.9352° |
| revolutions per day: | 14.68256584 |
| mean anomaly at epoch: | 350.7934° |
| orbit number at epoch: | 23212 |
The dashed part of the orbit path shows where the satellite is in the earth's shadow,
|
|